KB2KMM Weather Reports


time (UTC)temp
F
wind
direction
speed
knots
gust
knots
rain 1hr
in
rain 24hr
in
rain mn
in
humidity
%
barometer
mb
20260506162505 58 249 6.1 13.0 0.00 0.00 0.00 100 1010.2
20260506162006 58 244 6.1 12.2 0.00 0.00 0.00 100 1010.2
20260506161505 58 234 4.3 12.2 0.00 0.00 0.00 100 1010.4
20260506161006 58 195 2.6 11.3 0.00 0.00 0.00 100 1010.1
20260506160505 58 232 4.3 15.6 0.00 0.00 0.00 99 1010.3
20260506160005 58 209 5.2 15.6 0.00 0.00 0.00 99 1010.4
20260506155505 58 250 2.6 13.0 0.00 0.00 0.00 99 1010.4
20260506155006 59 231 6.1 13.0 0.00 0.00 0.00 99 1010.4
20260506154505 59 229 6.1 13.9 0.00 0.00 0.00 99 1010.5
20260506154005 59 218 7.8 13.9 0.00 0.00 0.00 99 1010.6
20260506153504 59 232 6.1 13.0 0.00 0.00 0.00 99 1010.7
20260506153005 59 220 5.2 13.0 0.00 0.00 0.00 99 1010.7
20260506152504 59 242 5.2 10.4 0.00 0.00 0.00 99 1010.8
20260506152006 59 219 5.2 13.0 0.00 0.00 0.00 99 1010.8
20260506151505 59 242 4.3 13.0 0.00 0.00 0.00 99 1010.7
20260506151005 59 234 5.2 13.0 0.00 0.00 0.00 99 1010.7
20260506150505 59 227 5.2 12.2 0.00 0.00 0.00 99 1010.6
20260506150005 59 186 4.3 13.0 0.00 0.00 0.00 99 1010.5
20260506145505 59 214 4.3 13.0 0.00 0.00 0.00 99 1010.5
20260506145005 59 168 4.3 13.0 0.00 0.00 0.00 99 1010.4
20260506144505 59 245 4.3 13.9 0.00 0.00 0.00 99 1010.5
20260506144006 59 203 2.6 13.9 0.00 0.00 0.00 99 1010.5
20260506143505 59 284 2.6 13.0 0.00 0.00 0.00 99 1010.5
20260506143006 59 200 3.5 13.0 0.00 0.00 0.00 99 1010.8
20260506142505 59 224 5.2 13.9 0.00 0.00 0.00 99 1010.8
20260506142005 59 215 7.8 13.9 0.00 0.00 0.00 99 1011.0
20260506141505 60 219 6.1 13.9 0.00 0.00 0.00 99 1011.0
20260506141006 60 211 3.5 13.0 0.00 0.00 0.00 99 1011.0
20260506140505 59 212 7.0 13.0 0.00 0.00 0.00 99 1010.9
20260506140005 59 223 6.1 15.6 0.00 0.00 0.00 100 1011.0
20260506135505 59 184 4.3 15.6 0.00 0.00 0.00 100 1011.1
20260506135005 59 228 4.3 15.6 0.00 0.00 0.00 100 1011.2
20260506134506 59 218 5.2 14.8 0.00 0.00 0.00 100 1011.3
20260506134005 59 214 3.5 12.2 0.00 0.00 0.00 100 1011.2
20260506133505 59 223 5.2 12.2 0.00 0.00 0.00 100 1011.2
20260506133006 59 228 2.6 14.8 0.00 0.00 0.00 100 1011.1
20260506132505 58 177 3.5 14.8 0.00 0.00 0.00 100 1011.1
20260506132006 58 207 3.5 13.9 0.00 0.00 0.00 100 1011.0
20260506131505 58 225 5.2 13.9 0.00 0.00 0.00 100 1011.1
20260506131006 58 223 3.5 13.0 0.00 0.00 0.00 100 1011.0
20260506130505 58 214 4.3 13.0 0.00 0.00 0.00 100 1011.0
20260506130006 58 358 4.3 12.2 0.00 0.00 0.00 100 1011.0
20260506125506 58 191 2.6 12.2 0.00 0.00 0.00 100 1011.1
20260506125005 58 247 5.2 12.2 0.00 0.00 0.00 100 1011.1
20260506124505 58 266 5.2 11.3 0.00 0.00 0.00 100 1010.9
20260506124006 58 227 4.3 10.4 0.00 0.00 0.00 100 1011.1
20260506123505 58 254 2.6 11.3 0.00 0.00 0.00 100 1011.2
20260506123006 58 223 5.2 11.3 0.00 0.00 0.00 100 1011.2
20260506122505 58 232 4.3 13.9 0.00 0.00 0.00 100 1011.3
20260506122006 58 228 5.2 13.9 0.00 0.00 0.00 100 1011.4
20260506121505 58 185 4.3 13.9 0.00 0.00 0.00 100 1011.5
20260506121006 58 222 3.5 13.9 0.00 0.00 0.00 100 1011.6
20260506120506 58 230 4.3 13.9 0.00 0.00 0.00 100 1011.4
20260506120005 58 220 5.2 13.0 0.00 0.00 0.00 100 1011.4
20260506115505 57 246 5.2 11.3 0.00 0.00 0.00 100 1011.3
20260506115005 57 231 2.6 13.0 0.00 0.00 0.00 100 1011.3
20260506114505 57 235 5.2 13.0 0.00 0.00 0.00 100 1011.2
20260506114005 57 218 4.3 12.2 0.00 0.00 0.00 100 1011.3
20260506113505 57 216 4.3 11.3 0.00 0.00 0.00 100 1011.2
20260506113005 57 194 4.3 12.2 0.00 0.00 0.00 100 1011.1
20260506112505 56 208 4.3 12.2 0.00 0.00 0.00 100 1011.1
20260506112005 56 0 2.6 10.4 0.00 0.00 0.00 100 1011.1
20260506111505 56 0 4.3 10.4 0.00 0.00 0.00 100 1011.3
20260506111005 56 0 3.5 14.8 0.00 0.00 0.00 100 1011.4
20260506110505 56 357 3.5 14.8 0.00 0.00 0.00 100 1011.3
20260506110005 56 0 4.3 14.8 0.00 0.00 0.00 100 1011.3
20260506105505 56 336 3.5 12.2 0.00 0.00 0.00 100 1011.2
20260506105005 55 322 4.3 12.2 0.00 0.00 0.00 100 1011.2
20260506104505 55 341 4.3 10.4 0.00 0.00 0.00 100 1011.1
20260506104006 55 352 5.2 10.4 0.00 0.00 0.00 100 1011.1
20260506103505 55 328 4.3 10.4 0.00 0.00 0.00 100 1011.1
20260506103005 55 329 3.5 10.4 0.00 0.00 0.00 100 1011.1
20260506102505 55 286 2.6 7.8 0.00 0.00 0.00 100 1011.0
20260506102005 55 265 3.5 13.0 0.00 0.00 0.00 100 1011.0
20260506101505 55 249 2.6 13.0 0.00 0.00 0.00 100 1011.1
20260506101005 55 284 4.3 13.0 0.00 0.00 0.00 100 1011.0
20260506100505 55 264 4.3 18.2 0.00 0.00 0.00 100 1011.1
20260506100005 55 252 6.1 18.2 0.00 0.00 0.00 100 1011.1
20260506095505 55 272 5.2 13.0 0.00 0.00 0.00 100 1011.1
20260506095005 55 263 6.1 13.0 0.00 0.00 0.00 100 1011.1
20260506094505 55 274 5.2 10.4 0.00 0.00 0.00 100 1011.1
20260506094005 55 275 5.2 15.6 0.00 0.00 0.00 100 1011.1
20260506093505 55 273 6.1 15.6 0.00 0.00 0.00 100 1011.1
20260506093005 55 261 2.6 10.4 0.00 0.00 0.00 100 1011.0
20260506092505 55 269 4.3 12.2 0.00 0.00 0.00 100 1011.1
20260506092005 55 255 4.3 12.2 0.00 0.00 0.00 100 1011.1
20260506091505 55 278 4.3 12.2 0.00 0.00 0.00 100 1011.0
20260506091006 55 265 4.3 12.2 0.00 0.00 0.00 100 1011.2
20260506090505 55 277 5.2 11.3 0.00 0.00 0.00 100 1011.2
20260506090005 55 271 4.3 12.2 0.00 0.00 0.00 100 1011.2
20260506085505 55 267 4.3 12.2 0.00 0.00 0.00 100 1011.3
20260506085005 55 266 4.3 10.4 0.00 0.00 0.00 100 1011.3
20260506084505 55 279 3.5 10.4 0.00 0.00 0.00 100 1011.3
20260506084005 55 276 2.6 13.0 0.00 0.00 0.00 100 1011.4
20260506083505 55 260 4.3 13.0 0.00 0.00 0.00 100 1011.4
20260506083005 55 250 4.3 13.0 0.00 0.00 0.00 100 1011.4
20260506082505 55 286 3.5 11.3 0.00 0.00 0.00 100 1011.4
20260506082005 56 287 1.7 10.4 0.00 0.00 0.00 100 1011.4
20260506081506 56 280 3.5 7.8 0.00 0.00 0.00 100 1011.4
20260506081005 55 288 4.3 8.7 0.00 0.00 0.00 100 1011.4
20260506080505 56 251 4.3 12.2 0.00 0.00 0.00 100 1011.4
20260506073505 56 286 4.3 11.3 0.00 0.00 0.00 100 1011.6
20260506073006 56 280 4.3 11.3 0.00 0.00 0.00 100 1011.8
20260506072505 56 283 4.3 10.4 0.00 0.00 0.00 100 1011.7
20260506072006 56 282 2.6 10.4 0.00 0.00 0.00 100 1011.8
20260506071505 56 319 2.6 13.0 0.00 0.00 0.00 100 1011.8
20260506071005 56 285 6.1 13.0 0.00 0.00 0.00 100 1011.8
20260506070505 56 293 5.2 12.2 0.00 0.00 0.00 100 1011.7
20260506062505 56 265 5.2 12.2 0.00 0.00 0.00 99 1011.7
20260506062006 56 282 4.3 12.2 0.00 0.00 0.00 99 1011.7
20260506061505 57 258 4.3 10.4 0.00 0.00 0.00 99 1011.6
20260506061005 57 280 5.2 12.2 0.00 0.00 0.00 99 1011.6
20260506060505 57 249 4.3 12.2 0.00 0.00 0.00 99 1011.6
20260506051005 57 292 7.0 14.8 0.00 0.00 0.00 96 1011.8
20260506050505 57 274 3.5 14.8 0.00 0.00 0.00 96 1012.0
20260506045005 57 297 7.0 14.8 0.00 0.00 0.00 96 1012.0
20260506044505 57 280 5.2 13.9 0.00 0.00 0.00 96 1012.0
20260506044005 57 295 5.2 14.8 0.00 0.00 0.00 95 1012.0
20260506043505 58 283 5.2 14.8 0.00 0.00 0.00 95 1011.9
20260506043005 58 301 5.2 13.9 0.00 0.00 0.00 95 1012.0
20260506042505 58 302 6.1 13.0 0.00 0.00 0.00 94 1012.0
20260506042005 58 291 5.2 14.8 0.00 0.00 0.00 94 1011.9
20260506041505 58 295 7.8 17.4 0.00 0.00 0.00 94 1011.9
20260506041005 58 299 7.8 17.4 0.00 0.00 0.00 94 1012.0
20260506040505 58 308 5.2 13.9 0.00 0.00 0.00 93 1012.0
20260506040005 58 288 3.5 13.9 0.00 0.00 0.00 93 1012.1
20260506035506 58 306 4.3 13.9 0.00 0.00 0.00 93 1012.0
20260506035005 58 296 7.8 13.9 0.00 0.00 0.00 93 1011.9
20260506034505 58 261 3.5 18.2 0.00 0.00 0.00 93 1011.9
20260506034006 58 294 7.8 18.2 0.00 0.00 0.00 93 1011.9
20260506033505 58 302 5.2 14.8 0.00 0.00 0.00 93 1012.0
20260506033005 58 303 2.6 13.0 0.00 0.00 0.00 93 1011.9
20260506032504 58 303 4.3 13.0 0.00 0.00 0.00 93 1011.9
20260506032005 58 310 2.6 18.2 0.00 0.00 0.00 93 1011.9
20260506031505 58 288 6.1 18.2 0.00 0.00 0.00 93 1011.9
20260506031006 58 301 4.3 12.2 0.00 0.00 0.00 93 1011.9
20260506030505 58 293 6.1 12.2 0.00 0.00 0.00 93 1012.0
20260506030005 58 302 5.2 12.2 0.00 0.00 0.00 93 1012.0
20260506025505 58 305 2.6 15.6 0.00 0.00 0.00 93 1012.1
20260506025005 58 297 4.3 15.6 0.00 0.00 0.00 93 1012.1
20260506024505 58 304 5.2 15.6 0.00 0.00 0.00 93 1012.0
20260506024005 58 296 4.3 13.9 0.00 0.00 0.00 93 1012.0
20260506023505 58 297 5.2 17.4 0.00 0.00 0.00 92 1012.0
20260506023005 58 304 4.3 17.4 0.00 0.00 0.00 91 1012.1
20260506022505 58 295 3.5 17.4 0.00 0.00 0.00 91 1012.0
20260506022005 58 308 6.1 19.1 0.00 0.00 0.00 91 1012.1
20260506021505 58 312 5.2 19.1 0.00 0.00 0.00 90 1012.0
20260506021005 59 297 6.1 17.4 0.00 0.00 0.00 89 1012.0
20260506020505 59 313 6.1 17.4 0.00 0.00 0.00 89 1012.0
20260506020005 59 322 6.1 13.9 0.00 0.00 0.00 87 1012.1
20260506015505 59 311 5.2 13.9 0.00 0.00 0.00 86 1012.0
20260506015005 59 315 3.5 13.9 0.00 0.00 0.00 86 1011.9
20260506014505 59 313 6.1 13.9 0.00 0.00 0.00 85 1011.8
20260506014005 59 309 5.2 13.9 0.00 0.00 0.00 83 1011.7
20260506013505 60 317 4.3 17.4 0.00 0.00 0.00 82 1011.7
20260506013005 60 325 4.3 17.4 0.00 0.00 0.00 80 1011.7
20260506012505 60 344 7.0 20.0 0.00 0.00 0.00 79 1011.5
20260506012005 60 340 6.1 20.0 0.00 0.00 0.00 79 1011.6
20260506011505 60 342 7.8 18.2 0.00 0.00 0.00 78 1011.5
20260506011005 61 336 7.8 18.2 0.00 0.00 0.00 78 1011.5
20260506010505 61 330 5.2 18.2 0.00 0.00 0.00 78 1011.4
20260506010005 61 337 6.1 18.2 0.00 0.00 0.00 76 1011.2
20260506005505 61 335 5.2 19.1 0.00 0.00 0.00 76 1011.2
20260506005005 61 336 4.3 19.1 0.00 0.00 0.00 76 1011.2
20260506004505 61 340 5.2 17.4 0.00 0.00 0.00 76 1011.1
20260506004006 61 332 5.2 14.8 0.00 0.00 0.00 76 1011.1
20260506003505 61 341 6.1 22.6 0.00 0.00 0.00 76 1011.0
20260506003008 61 352 7.8 22.6 0.00 0.00 0.00 77 1010.9
20260506002505 61 352 9.6 22.6 0.00 0.00 0.00 78 1010.9
20260506002009 61 356 7.0 20.9 0.00 0.00 0.00 78 1010.9
20260506001505 60 358 7.8 24.3 0.00 0.00 0.00 78 1010.7
20260506001008 60 357 6.1 24.3 0.00 0.00 0.00 78 1010.7
20260506000505 60 350 7.8 21.7 0.00 0.00 0.00 79 1010.7
20260506000005 60 347 7.0 20.9 0.00 0.00 0.00 79 1010.6
20260505235505 60 347 4.3 17.4 0.00 0.00 0.00 79 1010.6
20260505235009 60 350 5.2 19.1 0.00 0.00 0.00 79 1010.6
20260505234505 60 349 7.0 19.1 0.00 0.00 0.00 78 1010.5
20260505234009 60 345 6.1 17.4 0.00 0.00 0.00 78 1010.3
20260505233507 60 343 6.1 19.1 0.00 0.00 0.00 77 1010.1
20260505233010 61 335 7.8 19.1 0.00 0.00 0.00 75 1010.1
20260505232505 61 324 4.3 17.4 0.00 0.00 0.00 74 1010.1
20260505232009 61 324 7.8 17.4 0.00 0.00 0.00 73 1010.0
20260505231505 62 315 6.1 19.1 0.00 0.00 0.00 71 1010.0
20260505231008 62 210 8.7 19.1 0.00 0.00 0.00 70 1009.9
20260505230505 63 216 7.8 14.8 0.00 0.00 0.00 69 1009.8
20260505230005 63 213 5.2 20.9 0.00 0.00 0.00 68 1009.8
20260505225505 63 213 7.0 20.9 0.00 0.00 0.00 68 1009.9
20260505225009 63 230 6.1 20.9 0.00 0.00 0.00 68 1009.8
20260505224505 63 208 6.1 17.4 0.00 0.00 0.00 67 1009.7
20260505224009 63 221 8.7 17.4 0.00 0.00 0.00 66 1009.7
20260505223505 63 204 6.1 17.4 0.00 0.00 0.00 66 1009.6
20260505223010 63 185 6.1 17.4 0.00 0.00 0.00 65 1009.6
20260505222504 64 217 7.8 19.1 0.00 0.00 0.00 64 1009.6
20260505222008 64 215 7.0 24.3 0.00 0.00 0.00 63 1009.6
20260505221505 65 208 6.1 24.3 0.00 0.00 0.00 61 1009.5
20260505221008 65 177 5.2 15.6 0.00 0.00 0.00 63 1009.6
20260505220505 65 216 5.2 17.4 0.00 0.00 0.00 63 1009.5
20260505220004 65 231 7.8 17.4 0.00 0.00 0.00 61 1009.6
20260505215506 65 218 5.2 20.0 0.00 0.00 0.00 61 1009.5
20260505215010 65 187 4.3 20.0 0.00 0.00 0.00 61 1009.6
20260505214505 65 212 8.7 18.2 0.00 0.00 0.00 60 1009.5
20260505214009 65 212 3.5 15.6 0.00 0.00 0.00 60 1009.4
20260505213505 66 187 5.2 17.4 0.00 0.00 0.00 59 1009.3
20260505213009 66 213 7.8 17.4 0.00 0.00 0.00 58 1009.3
20260505212505 66 217 6.1 15.6 0.00 0.00 0.00 59 1009.2
20260505212008 66 214 4.3 13.0 0.00 0.00 0.00 60 1009.1
20260505211507 66 202 6.1 17.4 0.00 0.00 0.00 60 1009.2
20260505211008 66 219 7.0 18.2 0.00 0.00 0.00 59 1009.1
20260505210505 66 233 7.8 18.2 0.00 0.00 0.00 59 1009.0
20260505210006 66 195 5.2 14.8 0.00 0.00 0.00 58 1009.2
20260505205506 67 211 5.2 17.4 0.00 0.00 0.00 57 1009.1
20260505205010 67 214 6.1 17.4 0.00 0.00 0.00 57 1009.2
20260505204505 67 201 3.5 14.8 0.00 0.00 0.00 59 1009.2
20260505204012 66 238 5.2 14.8 0.00 0.00 0.00 60 1009.2
20260505203504 66 219 5.2 11.3 0.00 0.00 0.00 59 1009.2
20260505203009 66 192 4.3 11.3 0.00 0.00 0.00 60 1009.3
20260505202505 66 217 4.3 15.6 0.00 0.00 0.00 59 1009.3
20260505202010 67 189 5.2 15.6 0.00 0.00 0.00 58 1009.3
20260505201505 67 222 4.3 12.2 0.00 0.00 0.00 59 1009.5
20260505201008 67 227 4.3 13.9 0.00 0.00 0.00 56 1009.6
20260505200505 68 204 6.1 13.9 0.00 0.00 0.00 55 1009.6
20260505200005 69 189 4.3 10.4 0.00 0.00 0.00 55 1009.6
20260505195505 68 159 1.7 10.4 0.00 0.00 0.00 56 1009.8
20260505195009 68 190 4.3 10.4 0.00 0.00 0.00 56 1009.8
20260505194505 68 209 3.5 14.8 0.00 0.00 0.00 56 1009.8
20260505194009 68 238 5.2 14.8 0.00 0.00 0.00 55 1009.8
20260505193505 69 228 3.5 14.8 0.00 0.00 0.00 56 1010.0
20260505193010 69 234 7.0 14.8 0.00 0.00 0.00 54 1009.9
20260505192505 69 195 1.7 10.4 0.00 0.00 0.00 59 1010.1
20260505192009 68 231 2.6 10.4 0.00 0.00 0.00 60 1010.3
20260505191505 67 199 2.6 10.4 0.00 0.00 0.00 61 1010.2
20260505191008 67 241 2.6 17.4 0.00 0.00 0.00 63 1010.3
20260505190505 66 219 5.2 17.4 0.00 0.00 0.00 61 1010.5
20260505190005 67 228 5.2 13.0 0.00 0.00 0.00 61 1010.6
20260505185504 67 242 7.8 13.0 0.00 0.00 0.00 60 1010.7
20260505185010 67 253 4.3 13.0 0.00 0.00 0.00 61 1010.7
20260505184505 67 183 7.0 13.0 0.00 0.00 0.00 60 1010.8
20260505184009 68 210 4.3 12.2 0.00 0.00 0.00 60 1010.9
20260505183505 67 234 4.3 12.2 0.00 0.00 0.00 61 1011.0
20260505183010 67 213 2.6 12.2 0.00 0.00 0.00 63 1010.8
20260505182505 67 228 4.3 12.2 0.00 0.00 0.00 64 1010.9
20260505182009 67 258 3.5 10.4 0.00 0.00 0.00 65 1011.0
20260505181505 66 247 2.6 11.3 0.00 0.00 0.00 65 1011.0
20260505181008 66 247 5.2 13.9 0.00 0.00 0.00 64 1011.0
20260505180505 66 247 5.2 13.9 0.00 0.00 0.00 65 1011.1
20260505180005 66 242 3.5 11.3 0.00 0.00 0.00 65 1011.2
20260505175505 66 239 2.6 11.3 0.00 0.00 0.00 66 1011.2
20260505175009 66 214 4.3 12.2 0.00 0.00 0.00 68 1011.1
20260505174505 66 233 3.5 12.2 0.00 0.00 0.00 68 1011.3
20260505174009 66 225 4.3 12.2 0.00 0.00 0.00 68 1011.2
20260505173505 65 213 4.3 12.2 0.00 0.00 0.00 69 1011.1
20260505173009 65 217 5.2 11.3 0.00 0.00 0.00 69 1011.3
20260505172505 65 220 3.5 10.4 0.00 0.00 0.00 70 1011.2
20260505172009 65 217 4.3 12.2 0.00 0.00 0.00 70 1011.4
20260505171506 65 180 4.3 12.2 0.00 0.00 0.00 72 1011.4
20260505171008 65 221 1.7 8.7 0.00 0.00 0.00 73 1011.4
20260505170505 64 194 1.7 12.2 0.00 0.00 0.00 73 1011.4
20260505170005 64 199 2.6 12.2 0.00 0.00 0.00 73 1011.4
20260505165505 64 240 5.2 11.3 0.00 0.00 0.00 72 1011.4
20260505165009 65 219 5.2 11.3 0.00 0.00 0.00 71 1011.4
20260505164505 65 203 4.3 7.8 0.00 0.00 0.00 72 1011.5
20260505164009 65 210 3.5 8.7 0.00 0.00 0.00 72 1011.5
20260505163505 65 225 4.3 10.4 0.00 0.00 0.00 71 1011.5
20260505163009 65 233 5.2 10.4 0.00 0.00 0.00 71 1011.7